Flag for U.S.A. Weather past 2 weeks in Moscow, Idaho, U.S.A.

Now
25 °F

Overcast.


Feels Like: 25 °F
Forecast: 11 / 27 °F
Wind: No wind

Location: Pullman / Moscow Regional Airport

Current Time: Dec 29, 2014 at 1:42:55 AM

Latest Report: Dec 29, 2014 at 12:53 AM


Visibility: 10 mi

Pressure: 30.19 "Hg

Humidity: 92%

Dew point: 23 °F

Location of MoscowLocation

Historic Weather in Moscow — Graph

°F

Moscow temperature yesterday

Maximum temperature yesterday: 34 °F (at 12:56 AM)
Minimum temperature yesterday: 23 °F (at 8:53 PM)
Average temperature yesterday: 30 °F

Past Weeks' High & Low Weather Summary

 TemperatureHumidityPressure
High51 °F (Dec 21, 1:53 AM)100% (Dec 24, 9:53 AM)30.42 "Hg (Dec 24, 9:53 AM)
Low23 °F (Dec 28, 8:53 PM)65% (Dec 22, 1:53 PM)29.54 "Hg (Dec 21, 12:00 AM)
Average36 °F85%30.07 "Hg
* Reported Dec 14 12:53 AM — Dec 29 12:53 AM, Moscow, Weather by CustomWeather, © 2014

Note: Actual official high and low records may vary slightly from our data, if they occured in-between our weather recording intervals... More about our weather records

Advertising

Moscow weather history for previous 24 hours

 ConditionsComfort  
Time TempWeatherWind HumidityBarometerVisibility
12:53 AM
Dec 29
25 °FOvercast.No wind92%30.19 "Hg10 mi
11:53 PM
Dec 28
26 °FOvercast.No wind92%30.19 "Hg10 mi
10:53 PM24 °FOvercast.5 mph91%30.20 "Hg10 mi
9:58 PM23 °FIce fog.No wind96%30.12 "Hg3 mi
8:53 PM23 °FIce fog.No wind96%30.21 "Hg0 mi
7:53 PM24 °FIce fog.No wind100%30.19 "Hg0 mi
6:53 PM25 °FIce fog.No wind96%30.18 "Hg0 mi
5:53 PM26 °FPassing clouds.No wind92%30.17 "Hg10 mi
4:53 PM28 °FMostly cloudy.6 mph93%30.17 "Hg10 mi
3:53 PM30 °FLow clouds.7 mph92%30.16 "Hg10 mi
3:04 PM31 °FLight snow. Ice fog.6 mph92%30.07 "Hg3 mi
2:57 PM31 °FLight snow. Ice fog.5 mph92%30.07 "Hg1 mi
1:53 PM32 °FMostly cloudy.8 mph88%30.12 "Hg10 mi
12:53 PM32 °FMostly cloudy.10 mph92%30.11 "Hg10 mi
11:53 AM33 °FMostly cloudy.12 mph88%30.11 "Hg9 mi
10:53 AM33 °FLow clouds.12 mph88%30.11 "Hg10 mi
9:53 AM32 °FMostly cloudy.12 mph96%30.11 "Hg10 mi
8:53 AM32 °FLow clouds.10 mph96%30.10 "Hg10 mi
7:53 AM32 °FLow clouds.14 mph92%30.07 "Hg10 mi
7:00 AM32 °FMostly cloudy.17 mph92%30.00 "Hg10 mi
5:53 AM32 °FPassing clouds.14 mph88%30.04 "Hg10 mi
4:53 AM32 °FMostly cloudy.13 mph92%30.03 "Hg10 mi
4:03 AM32 °FLight snow. Ice fog.12 mph96%29.97 "Hg4 mi
3:53 AM32 °FLight snow. Ice fog.15 mph92%30.04 "Hg2 mi
2:59 AM33 °FLight snow. Fog.18 mph92%29.96 "Hg1 mi
2:02 AM33 °FLight snow. Fog.18 mph92%29.96 "Hg1 mi
1:53 AM33 °FLight snow. Fog.14 mph92%30.02 "Hg1 mi
Weather by CustomWeather, © 2014

See weather overviewHow to use our weather pages